RH
44 55 59 72 74 66 84 82 87 64 69 67 51 56 58 62 57 71 64 49 44 36 28 24 22 22 18 19 10 6 4 2 2 2 2 2 1 1 1 2 3 6 9 9
56 60 67 91 78 66 85 97 67 70 60 68 48 49 55 56 56 57 70 60 45 37 28 19 19 21 18 18 10 6 3 2 2 2 2 2 2 1 1 1 3 5 10 8
60 64 71 100 73 61 64 100 70 85 65 61 51 51 41 43 51 58 62 61 51 39 31 19 18 21 18 17 10 6 4 2 2 2 1 2 2 1 1 1 2 4 9 10
62 71 67 74 49 56 76 90 86 91 66 60 50 43 41 44 42 49 65 61 53 40 36 22 18 19 20 15 12 6 4 2 2 2 1 1 2 1 1 1 2 3 8 10
64 72 49 75 53 56 78 81 84 84 62 52 55 36 44 41 49 45 48 58 53 39 32 23 19 17 20 15 12 6 5 2 2 2 1 2 2 1 1 1 2 2 4 11
84 71 72 81 68 68 59 65 58 58 62 55 57 46 48 57 67 64 55 54 48 41 37 25 19 17 20 15 14 7 5 3 2 2 1 2 2 1 1 1 2 3 5 10
97 63 69 74 66 68 54 43 45 59 68 58 51 67 66 66 73 85 70 55 43 42 38 25 20 16 16 15 14 8 6 3 2 2 1 1 1 2 1 1 2 2 3 11
78 53 61 53 62 77 67 48 60 65 68 66 64 76 81 76 69 80 85 64 40 38 42 25 22 17 15 14 14 9 6 3 2 2 1 1 1 1 1 1 2 2 4 6
77 83 68 87 84 95 67 37 37 62 93 82 87 72 82 77 69 54 77 64 41 32 37 26 21 17 14 12 13 11 6 3 2 2 1 1 1 1 1 1 2 2 4 4
62 86 75 79 97 73 72 59 58 53 58 90 87 80 58 59 58 44 45 55 47 29 38 32 23 17 14 11 13 13 6 4 2 2 2 1 1 1 1 2 2 2 3 5
77 96 65 100 99 84 76 74 71 72 52 40 58 59 50 33 34 28 25 52 45 32 30 31 22 17 12 10 11 13 7 5 3 2 2 1 1 1 1 2 2 2 3 6
66 88 78 94 69 82 70 65 55 56 36 31 29 23 22 18 22 18 23 35 41 40 31 29 22 17 12 10 12 12 8 6 3 2 2 2 1 2 2 2 2 2 4 6
80 56 75 100 79 60 42 43 39 29 22 23 18 16 13 13 14 16 18 24 32 38 28 26 26 16 10 9 12 11 8 7 3 3 2 2 1 2 2 2 2 2 4 6
74 93 99 96 72 53 28 24 17 17 18 18 15 14 12 11 12 14 16 20 25 26 28 26 24 15 10 7 12 10 8 8 4 3 2 2 2 2 2 2 2 2 4 6
77 100 82 60 43 24 18 13 14 15 14 14 13 12 11 11 12 11 13 18 20 24 29 24 21 16 9 7 12 9 9 8 4 3 3 2 2 2 2 2 2 2 4 7
93 93 73 58 33 16 13 13 14 14 13 13 12 10 10 9 8 11 13 15 23 26 29 27 20 19 9 7 10 8 10 8 5 3 3 3 2 2 2 3 3 2 4 7
76 55 32 20 16 16 15 13 13 13 12 11 10 9 8 7 8 10 12 19 27 26 28 25 20 19 10 7 10 8 10 9 7 3 3 3 2 2 2 3 3 3 3 6
42 19 12 11 12 12 13 13 12 12 10 9 8 7 7 7 9 10 14 20 24 26 25 21 22 18 10 7 10 8 9 10 8 4 3 3 3 3 3 3 3 4 4 6
17 15 15 14 12 12 11 10 11 10 8 8 7 7 7 8 10 11 16 19 22 24 23 20 21 19 15 9 8 8 8 10 9 5 3 3 3 3 3 3 4 4 4 9
16 15 14 14 11 11 11 11 10 8 8 7 7 7 8 8 11 12 15 20 24 24 20 24 20 22 18 9 7 8 8 9 9 6 4 3 3 4 3 4 4 4 6 9
15 15 14 12 11 11 11 10 8 9 9 8 10 11 11 13 15 16 19 21 24 25 25 24 17 22 19 11 8 8 9 10 9 8 4 4 3 4 4 4 4 5 6 13
15 15 12 11 10 9 9 8 10 11 12 14 15 15 14 15 17 20 23 22 28 30 26 19 17 26 24 13 7 8 8 10 10 9 6 5 4 4 4 4 4 6 7 10
15 14 11 11 9 9 9 10 12 14 16 17 19 18 17 18 22 26 26 30 31 31 28 22 18 29 26 15 8 8 9 10 11 11 8 6 4 4 5 5 5 5 8 11
14 13 12 10 8 9 10 13 15 17 19 21 22 24 23 24 30 33 33 33 29 32 32 26 23 31 31 17 9 8 10 10 11 12 12 8 6 5 5 5 5 6 8 10
15 14 14 11 9 9 15 18 18 20 22 22 24 28 29 27 36 34 32 29 26 40 37 29 27 28 34 22 11 8 10 11 11 12 13 12 7 6 5 6 6 7 9 10
12 12 12 13 10 11 16 21 21 22 23 23 24 28 29 28 32 30 29 26 28 37 35 28 28 29 36 30 15 10 10 13 12 12 13 15 12 8 7 7 8 9 12 14
8 8 9 10 11 12 15 18 21 25 24 24 26 30 30 33 30 30 28 26 33 44 41 33 33 31 36 35 21 14 10 12 13 12 12 13 18 14 10 9 9 9 9 13
Wind_Speed
84 82 80 93 94 94 99 105 111 104 106 105 106 105 103 101 98 95 97 98 100 100 101 103 100 104 105 99 85 74 66 52 39 33 33 36 46 61 74 93 121 156 168 165
75 77 80 91 91 93 100 109 110 110 101 106 107 107 104 100 99 96 96 100 101 102 103 101 97 102 102 98 86 75 65 52 38 30 30 33 41 56 68 85 112 142 169 166
78 84 84 97 91 93 96 109 109 113 107 105 105 104 104 101 100 95 95 98 102 103 103 101 93 98 100 96 84 75 66 51 37 29 28 30 38 51 64 79 101 127 160 170
86 90 82 99 92 93 101 107 107 107 103 103 106 103 104 104 99 95 95 97 103 102 102 103 96 95 99 94 85 75 66 53 37 28 25 28 34 45 56 74 94 120 149 169
93 92 85 100 97 93 101 100 104 101 101 100 102 101 102 102 101 99 98 100 102 102 101 101 97 92 96 95 84 74 65 53 40 29 23 25 32 40 50 70 87 110 142 164
100 99 100 104 103 102 102 98 96 95 98 101 103 102 103 103 103 101 102 103 103 102 102 101 97 93 90 93 83 76 63 51 41 27 20 22 29 38 49 67 85 110 130 168
104 98 100 105 105 104 103 101 95 92 95 100 101 106 107 106 103 101 103 103 104 104 102 98 96 94 89 92 82 76 61 48 38 28 18 18 25 35 48 64 78 99 120 165
104 99 107 101 107 111 104 101 96 91 97 100 102 104 106 108 103 99 99 102 105 103 104 95 95 94 90 84 80 75 61 47 35 26 15 14 22 33 46 60 74 91 113 148
107 110 112 113 116 115 104 103 104 100 100 102 103 105 106 107 104 98 97 99 101 102 99 95 95 93 87 79 78 73 61 48 33 22 14 13 19 31 43 59 72 88 107 126
107 109 111 113 116 109 106 105 110 108 107 107 106 106 105 102 102 99 97 97 97 99 96 95 94 91 86 76 75 69 61 49 34 19 12 14 19 30 42 57 70 88 104 116
114 119 107 116 118 110 108 110 113 118 114 110 107 106 105 105 101 102 96 94 93 92 91 91 89 92 85 79 71 63 58 48 35 19 10 13 20 29 42 58 71 85 100 118
119 122 120 113 105 111 106 112 116 113 110 107 103 103 104 103 98 96 93 88 88 89 88 87 88 90 82 79 64 59 54 47 33 20 9 11 21 29 43 56 70 87 101 116
129 120 119 123 114 110 104 112 109 102 102 100 97 98 98 94 90 86 83 79 79 82 81 81 86 85 76 73 63 53 48 44 33 20 9 11 22 30 43 56 70 85 101 117
136 132 122 123 116 111 107 100 97 96 96 95 94 95 94 91 83 80 76 72 72 73 74 75 83 77 74 64 60 45 43 39 31 20 11 10 20 31 41 52 68 82 97 111
132 132 127 117 111 103 94 91 92 93 91 90 89 87 87 83 76 72 67 66 65 66 68 71 78 74 74 57 54 40 39 35 29 18 10 9 18 32 41 50 63 79 97 111
126 127 127 121 105 95 91 90 92 91 86 82 80 80 76 75 72 62 61 61 59 61 66 71 71 70 72 54 49 35 35 33 27 16 9 10 16 27 39 50 63 76 94 113
117 113 105 96 94 90 94 87 86 82 75 72 74 72 70 70 66 60 59 54 53 58 64 68 64 68 65 49 47 30 30 29 26 16 7 8 16 23 36 48 60 73 90 111
101 94 87 87 80 80 82 79 75 70 68 69 67 65 64 62 60 59 53 51 52 57 63 63 60 65 60 51 44 28 23 24 22 16 8 8 16 24 36 47 57 72 90 106
95 92 92 91 80 77 75 70 69 66 67 65 62 59 59 57 56 53 49 49 52 56 59 58 61 59 58 53 36 26 20 19 17 14 8 9 16 24 34 46 55 70 89 108
94 91 91 84 75 74 72 68 66 63 61 59 55 56 54 53 50 47 46 47 49 53 55 54 59 50 53 49 34 22 19 17 13 10 7 9 17 24 32 42 57 71 92 105
89 92 88 78 68 67 67 66 63 57 53 52 50 49 46 43 42 42 42 44 46 48 50 53 51 43 47 44 33 21 15 14 13 7 5 8 16 26 33 40 58 71 87 107
83 83 76 71 63 62 63 62 55 50 47 46 42 40 40 40 39 38 39 41 43 46 50 50 42 35 41 40 31 19 13 12 11 6 2 6 16 26 36 44 58 70 89 103
75 76 66 63 61 60 58 57 47 44 43 39 37 37 36 36 34 35 36 40 42 46 50 46 35 31 37 38 30 17 10 9 8 6 2 7 15 24 37 47 59 71 85 103
67 69 61 56 54 54 54 50 43 42 39 35 34 33 33 31 33 36 40 40 46 44 45 41 33 28 31 35 29 16 10 5 5 5 4 6 14 24 34 47 60 73 84 98
63 64 58 53 54 51 48 46 42 41 38 37 35 35 35 35 34 40 40 47 43 41 40 38 30 25 27 30 28 18 9 7 2 3 7 8 14 23 31 42 56 68 78 86
67 66 61 55 56 53 46 46 43 40 39 39 37 37 39 40 40 44 44 44 41 38 38 38 30 23 21 26 27 20 10 7 6 4 9 12 14 22 30 37 50 62 71 85
68 64 63 60 57 56 49 48 46 43 45 43 41 42 43 45 45 47 48 45 40 37 36 36 30 21 17 20 25 22 16 10 10 8 11 16 19 21 27 35 41 56 70 80
Wind_Direction
325 329 334 332 336 337 338 336 335 334 332 333 333 332 330 332 332 334 334 338 342 340 342 343 344 342 341 342 337 335 329 322 314 293 269 243 226 220 214 211 207 206 204 201
325 327 336 330 332 336 335 331 335 331 330 329 331 331 330 331 331 331 334 336 339 339 341 341 341 343 340 344 338 337 331 327 318 297 271 247 227 219 213 209 205 206 204 203
325 326 335 326 332 334 333 328 331 329 327 326 330 329 329 332 331 332 334 334 338 339 341 340 341 345 342 345 340 339 333 330 318 303 276 249 228 220 212 207 207 203 204 203
327 325 334 323 328 331 329 327 327 327 327 326 326 328 327 329 332 331 332 333 336 338 340 339 341 345 342 346 343 341 335 331 325 312 280 251 230 220 212 203 204 202 202 203
321 322 333 320 325 323 323 327 323 324 325 323 324 326 328 328 330 330 332 332 335 338 338 339 341 345 344 345 344 343 337 333 328 317 286 250 230 219 208 202 202 202 200 201
319 325 328 322 328 325 324 323 320 321 323 324 323 325 325 329 330 330 330 331 334 337 337 338 341 345 345 345 347 342 339 337 328 320 289 248 225 217 206 202 198 199 199 199
315 325 324 325 326 327 324 320 321 321 321 323 322 323 325 326 326 326 326 328 331 334 336 336 340 342 344 344 349 341 340 339 329 320 291 247 221 209 201 199 197 197 197 198
317 322 320 325 327 326 323 322 320 320 320 321 321 320 320 321 322 321 322 324 327 330 333 334 338 341 342 344 350 341 340 341 332 319 299 237 214 203 198 197 196 194 196 198
319 322 324 325 324 323 322 324 323 320 319 318 319 317 316 316 317 318 318 320 325 327 332 334 334 338 341 343 350 341 340 341 337 321 300 234 209 199 195 193 194 192 195 197
320 318 321 323 320 320 318 318 321 321 317 315 315 315 314 312 312 314 316 318 322 325 329 332 333 337 339 344 348 342 338 340 337 329 297 240 206 201 197 192 194 193 195 197
322 319 322 320 316 319 317 316 316 319 316 313 311 311 311 310 311 313 317 316 319 322 327 329 330 335 337 341 346 342 337 340 336 335 292 239 206 203 197 192 193 193 192 194
320 316 317 316 315 314 314 313 315 315 311 308 307 308 309 312 313 316 318 317 317 319 325 327 329 334 337 340 347 342 336 338 335 330 299 231 208 198 195 193 196 194 190 193
313 314 314 314 315 314 314 312 312 309 307 304 306 308 310 313 314 316 317 317 316 317 323 324 327 334 334 341 345 341 336 336 334 332 308 232 213 198 199 195 195 193 191 192
310 310 311 312 314 312 311 309 307 305 305 302 305 307 309 312 316 314 314 317 317 317 322 324 327 331 333 343 343 339 336 337 334 333 302 226 213 198 198 197 193 194 193 192
306 309 311 311 311 308 306 306 308 307 305 304 304 305 308 313 312 312 315 315 316 318 321 324 328 332 332 347 343 341 338 337 336 331 301 228 209 203 195 197 195 196 192 192
307 307 309 309 310 309 305 307 307 305 304 304 303 305 308 310 310 311 311 314 315 319 320 324 327 329 329 346 344 345 339 336 336 332 298 221 211 207 198 197 197 195 190 190
304 305 305 307 307 306 301 300 301 301 300 300 301 303 307 308 309 310 313 312 313 316 316 322 324 327 326 346 345 348 343 335 334 329 289 212 205 202 196 191 195 197 192 190
304 307 306 303 302 298 296 296 299 299 297 297 298 301 303 304 308 308 312 310 311 313 315 321 325 325 325 344 343 342 349 336 333 325 296 213 194 196 195 188 193 195 194 193
306 307 303 300 300 299 294 293 296 296 296 298 299 300 300 303 305 306 308 310 310 312 315 322 327 326 323 334 342 339 347 341 338 318 287 211 194 190 195 195 191 194 194 195
304 302 299 297 299 298 293 294 295 297 297 296 297 298 300 302 304 302 305 306 308 312 315 321 327 321 318 329 341 341 344 344 341 324 274 219 196 192 193 199 191 193 194 195
300 297 297 296 298 298 296 295 297 298 297 297 298 298 299 302 300 301 300 302 307 309 313 320 324 318 317 326 340 338 343 345 333 339 244 212 198 190 192 196 192 190 193 196
295 293 293 293 291 294 294 293 296 296 296 298 298 299 299 299 299 298 299 304 305 307 311 320 320 318 317 324 333 334 338 348 327 334 253 205 195 188 191 193 191 190 193 195
290 289 291 291 290 288 288 290 292 291 292 295 296 296 295 293 298 298 303 304 304 305 310 316 316 318 315 321 328 333 329 346 334 309 272 185 193 187 190 192 193 192 194 196
285 285 289 289 286 284 284 287 286 284 288 289 292 294 293 295 300 300 303 300 304 302 308 310 315 319 315 318 322 329 318 334 341 289 266 190 187 188 187 192 196 195 194 197
280 282 285 284 280 278 280 280 281 282 283 281 285 288 288 293 298 301 299 302 298 300 301 305 312 317 317 312 314 318 315 294 312 235 233 218 183 189 188 193 195 199 199 201
276 278 280 279 275 274 272 273 275 278 278 277 279 283 285 291 293 297 300 299 295 293 298 303 307 311 318 306 305 305 297 276 267 222 211 210 207 184 190 193 198 195 200 203
281 279 275 272 269 269 267 268 271 273 274 274 276 279 284 286 289 294 294 294 288 287 296 300 304 309 309 302 296 295 287 261 246 244 218 206 205 208 192 192 198 201 203 199